sat.trackr.live / text

‹ back to catalog

LEO 1 (LEO VANTAGE 1)

NORAD 43113 · 2018-004C

PAYLOAD ACTIVE UNKNOWN

§ Identity

Operator
Country
US
Launch date
2018-01-12
Launch site
SRILR
Launch vehicle
Mass (kg)
RCS (m²)

External: N2YO · Heavens-Above · Gunter

§ Orbital elements

Epoch: 2026-09-20T01:16:51.335616Z

Period
98.07 min
Inclination
99.2417°
Eccentricity
0.0348934
Mean motion
14.68283911 rev/d
Perigee alt
420.7 km
Apogee alt
912.4 km
Semi-major
7,044.7 km
B*
9.5950e-5
RAAN
193.7685°
Arg perigee
147.9856°
Mean anomaly
214.3073°
Rev number
45,140

§ Raw data

LEO 1 (LEO VANTAGE 1)1 43113U 18004C   26263.05337194  .00001323  00000+0  95950-4 0  99962 43113  99.2417 193.7685 0348934 147.9856 214.3073 14.68283911451403

JSON: /api/v1/satellites/43113 · /tle

For live sub-satellite position, see the globe view (requires WebGL).

§ Visibility from observer

Set your observer location to see the next 7 days of passes ≥ 10°. The values pass through the URL so the page stays shareable.

No JS? Fill the form by hand. The geolocation button needs JavaScript.